RH
96 99 98 98 85 87 88 82 87 91 94 97 96 97 97 96 98 97 97 96 93 87 87 87 84 86 87 92 96 86 66 64 82 84 80 74 70 76 76 82 91 80 85
97 98 98 99 96 96 92 90 91 93 95 96 98 99 99 99 99 99 98 98 97 96 94 92 91 91 89 88 79 70 71 65 59 69 84 81 71 76 76 74 75 77 73
98 100 99 100 99 99 99 98 98 99 98 99 99 100 99 100 99 99 99 99 98 99 99 100 97 96 95 95 94 66 53 63 69 67 66 77 77 72 87 79 78 78 86
97 100 99 100 100 100 99 98 97 98 99 98 100 100 99 100 99 98 98 98 99 100 100 99 100 98 94 93 95 95 61 39 53 54 64 64 85 79 79 89 84 82 81
93 92 97 99 99 99 99 98 99 99 98 98 99 99 99 100 100 99 100 99 99 100 98 99 100 99 100 99 98 96 71 57 62 53 47 50 68 68 86 96 83 89 84
72 88 98 100 100 99 99 98 96 98 99 99 98 99 98 98 99 98 98 98 100 100 100 99 98 100 100 98 93 77 74 69 69 65 58 56 56 58 71 92 92 94 77
62 68 92 99 99 98 96 95 94 91 89 88 89 89 91 89 88 90 94 94 93 93 91 91 87 80 95 89 78 78 75 70 72 78 69 64 61 62 79 88 95 91 91
62 59 60 72 84 91 88 85 81 80 77 73 71 70 69 68 69 71 74 75 78 77 76 74 74 70 74 71 67 67 69 74 75 73 77 81 76 90 88 87 92 96 95
57 57 53 52 54 53 66 66 66 63 60 57 52 50 52 52 56 45 47 55 56 58 58 58 57 54 55 58 56 56 64 66 64 66 71 79 81 86 97 95 93 92 95
56 54 53 45 44 41 45 52 50 47 44 41 38 34 32 27 35 32 25 48 48 47 48 47 46 44 39 38 44 38 47 53 55 62 66 70 71 77 85 98 99 96 94
53 52 49 44 39 36 33 33 33 34 31 26 24 24 23 23 24 24 35 42 42 41 42 41 39 37 26 20 23 24 29 29 35 45 55 66 64 82 91 95 97 99 98
46 45 46 41 37 32 31 28 27 27 25 21 22 23 23 22 26 24 23 30 29 26 20 29 33 21 17 18 19 19 18 18 20 28 37 40 54 64 72 79 89 95 97
45 42 39 39 35 32 29 27 27 27 27 25 21 24 23 22 22 24 24 24 23 22 20 21 22 20 20 20 20 19 17 16 16 17 20 23 38 43 49 58 67 79 90
44 40 37 36 33 32 30 29 29 30 29 26 22 20 25 22 23 27 26 25 22 20 21 23 24 22 20 19 22 20 20 18 18 18 18 20 21 31 36 41 48 59 72
44 41 38 36 35 36 34 32 31 30 30 29 23 23 20 19 21 25 28 27 25 23 27 29 28 27 25 25 24 22 21 20 20 20 18 16 21 27 29 34 39 46 58
43 41 38 36 36 35 32 31 30 30 31 31 28 21 19 17 19 26 29 29 25 29 30 32 30 29 28 29 27 26 25 24 21 16 17 17 20 26 29 29 32 39 44
41 41 39 37 37 35 33 32 32 31 29 29 31 26 26 21 21 30 32 33 30 32 32 32 32 31 34 33 33 32 30 27 18 16 23 23 22 19 23 27 28 31 35
40 36 30 37 36 32 32 32 30 32 31 31 30 28 28 27 26 31 33 33 31 34 35 34 35 36 36 37 37 33 29 26 14 27 26 22 21 21 27 36 56 65 68
39 38 36 37 36 35 35 34 34 34 34 33 31 29 30 29 30 30 34 34 36 36 37 38 38 39 41 43 42 38 37 31 30 27 23 26 29 28 25 34 44 51 49
39 41 40 38 37 37 36 35 34 35 34 34 33 33 33 32 32 33 34 35 36 36 39 41 42 41 45 45 45 40 29 24 28 29 32 27 22 21 20 24 27 29 30
38 41 41 39 40 38 34 33 32 33 35 36 34 36 35 33 32 35 34 36 37 39 41 45 45 47 44 47 45 48 34 28 19 31 24 23 27 21 20 25 26 26 22
37 38 40 41 40 41 36 32 33 31 32 31 33 36 36 34 34 37 36 37 39 38 40 43 47 48 48 50 52 50 59 34 29 16 19 30 21 27 29 28 26 24 28
37 35 38 39 39 39 32 33 33 31 30 31 31 34 34 34 35 37 38 40 43 43 46 47 47 47 52 52 51 51 64 57 50 40 32 32 34 28 28 28 32 33 32
36 36 36 40 40 36 37 34 32 32 32 34 34 33 32 32 34 36 39 42 44 45 46 48 49 50 53 56 54 52 50 52 61 56 38 43 45 42 40 38 35 38 39
37 37 40 43 39 39 35 34 34 33 34 33 33 32 33 34 33 35 37 40 43 45 47 48 51 53 54 56 57 58 56 56 55 57 62 48 50 48 47 46 47 46 46
42 42 44 44 43 41 38 36 36 36 35 34 35 35 36 35 36 37 38 41 44 46 47 49 52 54 56 57 58 58 59 60 59 59 61 59 59 57 56 55 54 54 53
Wind_Speed
22 30 12 8 9 10 11 15 14 14 16 17 17 18 18 17 18 19 19 18 18 18 18 18 19 18 17 18 18 19 18 17 17 16 15 12 11 10 9 10 9 9 11
20 31 20 17 18 15 13 17 18 20 20 19 18 19 19 20 20 20 20 20 18 18 17 17 17 17 17 17 16 16 17 17 14 13 11 11 10 9 8 7 7 7 7
21 27 33 29 26 23 21 20 22 23 23 24 23 23 24 23 23 22 21 21 21 22 22 19 16 16 16 16 16 15 14 14 14 15 10 11 11 10 10 8 6 4 5
18 25 25 24 24 23 22 21 21 22 23 22 23 24 23 23 22 22 22 22 22 22 22 20 21 19 16 15 15 15 14 12 12 14 11 7 9 11 10 9 8 4 2
11 18 19 20 21 22 21 20 21 22 22 21 21 22 21 21 21 21 21 21 21 22 21 20 20 19 18 17 15 14 14 13 12 13 10 10 7 10 10 11 6 5 4
8 10 16 17 19 20 19 20 20 21 21 21 22 22 21 21 22 22 21 21 21 21 21 20 20 20 19 17 16 15 15 13 12 11 8 10 8 10 10 10 9 8 6
10 7 13 16 16 17 18 19 20 20 20 20 21 21 21 20 20 21 21 20 20 20 20 20 19 18 18 17 16 16 16 15 10 18 10 6 8 11 11 11 11 11 9
10 10 7 11 14 16 18 19 19 20 19 19 19 19 19 19 18 18 19 20 20 20 20 20 20 19 18 17 17 16 14 14 14 15 13 10 8 11 11 12 13 13 12
10 9 10 8 10 13 16 18 18 18 18 19 19 18 18 19 18 18 18 19 20 21 21 21 19 19 18 18 17 16 14 13 13 13 13 11 13 12 12 11 11 12 13
12 10 9 9 9 9 14 15 17 18 19 18 19 18 16 17 17 19 20 20 21 20 22 21 22 21 19 19 19 16 14 12 12 14 16 14 15 15 14 13 13 12 12
10 8 9 9 9 9 10 13 14 16 17 17 18 17 17 17 18 18 19 19 19 19 20 20 21 21 20 18 18 17 16 17 16 15 15 16 18 17 16 16 15 14 14
8 9 9 10 9 10 9 11 12 13 14 16 16 15 13 13 14 15 16 17 18 19 20 20 18 19 20 19 19 19 18 18 18 16 16 18 20 19 19 20 19 18 17
9 10 8 9 12 10 11 10 11 11 11 13 15 14 12 14 15 16 16 18 19 21 23 22 22 22 21 20 19 18 17 17 17 18 19 20 21 21 21 22 21 21 20
11 10 9 9 11 12 11 11 11 12 11 13 15 15 14 15 16 16 17 19 21 23 23 22 22 22 22 22 20 21 21 21 20 20 19 20 22 23 23 23 23 23 22
13 11 10 10 11 10 12 11 11 12 12 12 14 15 15 17 18 17 18 18 19 20 21 21 22 22 23 22 22 22 23 23 23 22 24 24 24 23 23 24 24 24 24
16 13 12 11 11 11 11 10 11 10 10 11 12 16 17 17 17 16 15 16 19 20 19 20 21 22 22 21 23 22 22 23 26 28 27 27 25 24 23 24 23 22 23
18 15 14 13 11 11 12 9 10 9 10 10 10 12 14 16 16 14 14 15 19 19 19 20 21 22 22 23 24 23 21 26 30 25 24 26 26 26 25 23 23 23 23
20 19 15 13 13 11 11 10 9 9 7 8 8 9 12 14 15 14 15 17 20 19 18 19 20 22 24 23 25 25 27 29 33 27 24 20 19 22 24 23 15 15 16
21 20 18 15 14 12 11 10 9 8 7 7 6 9 11 13 14 15 14 15 16 16 16 18 19 20 24 24 22 24 25 30 27 18 18 21 14 14 16 22 22 18 18
21 20 18 16 14 12 10 10 9 7 7 4 7 10 10 12 13 13 12 13 14 16 17 19 20 23 22 26 28 24 34 24 20 17 10 16 19 20 18 22 18 17 20
22 20 18 17 14 13 13 12 10 7 4 3 7 8 9 11 12 12 13 14 15 17 18 19 21 24 28 27 20 26 22 10 24 9 22 21 13 21 21 21 18 20 24
25 22 20 17 16 14 13 12 8 7 3 6 4 5 9 12 13 12 14 15 16 19 20 21 20 22 21 22 16 19 4 15 5 31 35 18 27 21 18 23 28 31 23
26 25 21 18 16 14 11 10 8 4 5 4 5 7 11 11 13 14 15 15 16 17 18 18 18 17 20 22 15 9 4 3 22 10 22 26 18 30 32 31 24 21 24
27 25 22 19 16 14 12 10 9 7 5 2 4 7 9 9 9 11 13 14 16 15 16 16 16 19 19 19 19 15 18 23 5 10 4 19 26 22 24 28 32 28 29
27 26 22 19 15 13 13 10 9 7 3 2 4 7 9 8 10 10 11 13 15 16 16 17 18 20 20 20 20 20 18 21 22 14 17 15 26 24 23 24 30 32 31
28 26 22 19 15 13 10 9 7 5 2 3 6 8 9 11 11 11 12 15 16 16 18 19 20 20 21 21 23 22 19 16 17 16 13 21 23 29 26 25 25 26 28
Wind_Direction
3 18 17 61 71 57 63 71 77 84 78 74 72 73 73 71 68 64 62 61 61 57 53 52 52 50 49 46 44 47 49 55 59 58 56 52 57 64 61 53 68 63 67
3 26 3 112 100 88 77 71 71 71 73 74 73 73 71 66 62 59 56 54 52 53 53 49 49 48 46 43 43 45 47 52 61 56 56 40 48 55 55 55 61 61 59
21 29 34 54 62 62 63 58 60 61 65 64 64 65 63 61 57 54 50 49 47 46 44 43 44 40 39 40 35 38 40 47 48 37 68 55 45 46 41 35 47 65 62
26 45 45 49 59 61 61 61 62 61 60 60 60 59 57 55 56 56 53 52 50 46 45 42 41 38 38 34 30 27 31 39 46 38 37 42 47 36 29 25 20 16 30
38 58 49 53 59 62 63 63 65 65 66 66 65 64 61 57 54 51 47 44 43 41 40 36 36 40 39 39 33 23 23 29 30 32 24 15 12 6 24 19 7 11 346
67 73 63 60 62 64 63 63 65 67 66 63 64 63 61 59 55 52 49 46 43 42 40 38 36 32 31 27 21 21 19 21 39 30 20 14 357 2 3 5 1 342 314
87 51 73 65 65 71 71 69 68 66 65 62 61 59 56 54 51 49 45 43 42 38 37 35 33 31 26 25 24 20 18 16 12 23 23 2 351 350 3 355 348 341 314
116 100 54 63 68 72 70 67 64 62 61 60 59 56 51 48 45 43 39 37 34 33 30 29 26 23 22 16 17 16 18 18 17 11 7 21 15 13 1 348 341 338 335
96 99 100 75 51 49 65 64 63 62 59 56 55 55 50 49 43 42 38 34 31 29 27 24 22 18 16 12 8 11 16 15 9 12 347 334 346 349 357 345 334 328 329
106 101 94 93 79 54 60 61 60 56 55 53 51 50 47 42 43 35 38 30 29 28 25 22 20 18 17 12 7 13 14 6 358 359 347 337 334 333 339 337 343 327 318
97 94 110 97 94 75 58 62 58 58 55 59 56 55 43 40 42 32 34 29 26 29 23 22 20 14 14 16 7 9 1 354 352 347 346 333 331 334 335 333 328 326 321
108 95 103 105 91 94 77 66 60 62 51 57 65 58 57 45 47 37 28 26 25 23 21 20 17 12 11 11 3 2 357 350 344 339 326 325 341 332 327 324 322 319 316
131 118 107 107 107 86 91 89 88 70 70 57 59 65 52 47 43 38 26 25 20 21 15 12 9 7 3 2 357 352 349 344 338 330 319 316 324 323 320 319 316 313 311
134 124 113 108 104 108 110 100 91 85 69 60 54 55 52 46 39 36 26 18 14 14 8 8 3 0 357 355 353 344 343 336 332 325 320 309 310 317 317 314 312 307 304
143 137 126 124 112 119 115 106 94 79 70 55 51 47 46 40 35 29 23 15 8 10 6 4 360 357 354 353 344 344 336 333 328 321 312 310 312 311 310 311 310 306 304
152 145 139 127 128 121 105 104 94 85 79 66 41 40 35 35 33 27 19 11 4 10 3 1 358 353 352 346 342 339 335 328 322 318 316 315 313 310 310 309 308 306 304
156 151 150 140 132 129 120 106 99 86 70 61 51 33 34 28 29 28 18 9 4 6 4 357 357 352 350 347 342 339 334 324 327 326 323 316 311 311 312 310 307 308 307
157 157 151 152 146 138 130 122 108 98 80 70 55 36 37 23 21 26 16 9 4 4 3 356 353 350 347 345 338 336 324 326 328 320 312 318 328 323 326 327 329 345 337
165 161 154 152 151 145 139 130 116 111 103 84 53 40 32 21 16 23 16 6 2 1 0 356 352 351 345 343 335 326 328 319 317 329 331 332 346 332 323 339 324 322 338
164 161 158 158 153 149 141 130 130 110 99 57 51 33 22 19 11 21 9 5 360 359 357 357 353 351 350 347 336 335 331 336 340 338 358 333 329 332 330 332 334 324 315
166 164 165 159 153 153 158 156 148 124 118 86 44 29 8 10 6 15 1 0 359 358 356 357 354 351 345 350 342 334 329 334 322 349 333 343 338 334 323 315 327 318 320
170 170 167 163 157 161 162 159 159 141 125 75 41 22 357 4 359 2 357 356 358 352 353 351 350 341 337 341 332 319 331 325 349 322 315 317 320 320 316 316 316 318 313
177 173 168 162 158 154 144 130 122 113 101 144 3 5 3 1 353 348 349 352 349 349 344 338 335 332 326 325 331 322 328 294 320 293 303 300 313 308 304 312 314 311 310
178 171 168 161 160 149 142 137 130 121 110 33 11 359 355 353 341 342 341 342 338 337 328 324 320 315 315 312 312 300 288 295 307 313 200 306 295 299 301 296 302 304 301
175 168 162 159 152 151 145 140 130 126 108 30 5 349 352 336 339 337 334 327 326 323 319 314 310 308 305 301 299 300 295 291 286 283 300 305 300 296 296 296 298 300 302
166 160 160 159 155 148 141 132 132 122 90 24 2 350 336 329 333 331 322 318 320 315 311 307 306 302 299 298 296 294 290 290 289 288 290 300 300 300 297 296 298 297 295